Temperature
16 16 17 17 14 12 14 15 16 17 17 17 17 17 15 15 16 15 14 14 15 15 14 14 14 14 14 14 15 15 15 15 15 15 15 15 15 15 15 15 15 15 15 15 15 15 15 15 14
16 16 17 16 12 13 14 15 16 17 17 18 17 16 15 14 15 14 14 14 14 14 14 14 14 14 14 14 14 14 14 14 14 15 15 15 15 14 14 14 14 14 15 15 15 15 15 14 14
16 16 16 12 12 13 15 16 15 16 18 18 16 16 15 14 14 14 14 14 14 14 14 14 14 14 14 14 14 14 14 14 14 14 14 14 14 14 14 14 14 14 14 14 14 14 14 14 14
16 16 15 12 13 14 15 15 15 16 17 17 16 14 14 14 14 14 14 14 14 14 14 14 14 14 14 14 14 14 14 14 14 14 14 14 14 14 14 14 14 14 14 14 14 14 14 14 14
16 15 12 12 13 14 14 15 16 15 16 16 15 13 14 14 14 14 14 14 14 14 14 14 14 13 14 14 13 13 14 14 14 14 14 14 14 14 14 14 14 14 14 14 14 14 14 14 13
15 13 11 12 13 14 14 16 16 15 15 15 15 13 13 14 14 14 14 14 14 14 13 13 13 13 13 13 13 13 13 13 13 13 13 13 13 13 13 13 13 13 13 13 14 13 13 13 13
14 11 12 13 13 14 15 16 15 14 14 15 15 13 13 13 13 13 13 13 13 13 13 13 13 13 13 13 13 13 13 13 13 13 13 13 13 13 13 13 13 13 13 13 13 13 13 13 13
14 11 12 12 13 14 15 16 16 15 15 15 15 13 12 13 13 13 13 13 13 13 13 13 13 12 12 12 13 13 13 13 13 13 13 13 13 13 13 13 13 13 13 13 13 13 13 13 13
14 10 11 12 13 14 14 14 15 15 15 14 14 14 14 13 13 13 12 12 12 12 12 12 12 12 12 12 12 12 12 12 12 12 12 12 12 12 12 12 12 12 12 12 12 13 13 12 12
13 10 11 13 13 13 14 14 14 14 13 13 13 14 13 13 13 12 12 12 12 12 12 12 12 12 12 12 12 12 12 12 12 12 12 12 12 12 12 12 12 12 12 12 12 12 12 12 12
12 10 12 13 14 14 13 13 14 13 12 12 13 13 13 12 12 12 12 12 12 12 12 12 11 12 12 12 12 12 11 11 11 11 11 11 11 11 11 11 11 11 11 12 12 12 12 12 12
11 11 12 13 13 13 13 13 12 12 13 14 14 13 13 12 12 12 12 12 11 11 11 11 11 11 11 11 11 11 11 11 11 11 11 11 11 11 11 11 11 11 11 11 11 11 11 11 11
11 11 12 12 13 12 12 12 12 12 13 13 13 13 12 12 12 12 11 11 11 11 11 11 11 11 11 11 11 11 11 11 11 11 11 11 11 11 11 11 11 11 11 11 11 11 11 11 11
11 11 11 12 12 12 11 11 11 12 12 12 12 12 12 12 11 11 11 11 11 11 11 11 11 10 10 10 10 10 10 10 10 10 10 10 10 10 10 10 10 10 10 10 10 10 10 10 10
11 10 10 11 11 11 11 10 9 12 12 11 11 12 11 11 11 11 11 11 11 10 10 10 10 10 10 10 10 10 10 10 10 10 10 10 10 10 10 10 10 10 10 10 10 9 9 10 9
10 9 9 10 10 11 10 9 10 11 11 11 11 11 11 11 11 11 10 10 10 10 10 10 10 10 10 10 10 10 10 9 9 9 9 9 9 9 9 9 9 9 9 9 9 9 9 9 9
8 8 9 10 10 10 9 9 9 11 10 10 10 10 10 10 10 10 10 10 10 10 10 10 10 9 9 9 9 9 9 9 9 9 9 9 9 9 9 9 9 9 9 9 8 8 8 8 8
8 8 8 9 9 9 8 8 9 10 10 10 10 10 10 10 10 10 10 9 9 9 9 9 9 9 9 9 9 9 9 9 9 9 8 8 8 8 8 8 8 8 8 8 8 8 8 8 8
8 8 8 8 9 9 8 8 8 9 9 9 9 9 9 9 9 9 9 9 9 9 9 9 8 8 8 8 8 8 8 8 8 8 8 8 8 8 8 8 8 8 8 8 7 7 7 7 7
8 8 8 8 8 8 7 7 8 8 8 9 9 9 8 9 8 9 9 9 9 8 8 8 8 8 8 8 8 8 8 7 7 7 7 7 7 7 7 7 7 7 7 7 7 7 7 7 6
8 7 7 7 7 7 7 7 7 8 8 9 9 9 8 8 8 8 8 8 8 8 8 8 8 8 7 7 7 7 7 7 7 7 7 7 7 7 7 7 7 7 7 7 7 6 6 6 6
7 7 7 7 6 5 6 6 6 7 7 7 7 8 8 8 8 8 8 8 8 8 8 7 7 7 7 7 7 7 6 6 6 6 6 6 6 6 6 6 6 6 6 6 6 6 6 6 5
7 7 7 7 6 5 5 5 6 6 6 6 7 7 7 7 7 7 7 7 8 7 7 7 7 7 7 6 6 6 6 6 6 6 6 6 6 6 5 6 6 6 6 6 5 5 5 5 5
7 6 6 4 4 5 5 5 6 5 6 6 6 7 7 7 7 7 7 7 7 7 7 6 6 6 6 6 6 6 6 6 5 5 5 5 5 5 5 5 5 5 5 5 5 5 5 5 5
6 5 4 4 4 4 5 5 5 6 6 6 6 6 7 7 7 6 6 6 6 6 6 6 6 6 6 6 6 5 5 5 5 5 5 5 5 5 4 4 5 4 4 4 4 4 4 4 4
5 5 5 5 4 4 4 4 5 5 5 6 6 6 6 6 6 6 6 6 6 6 5 5 5 5 5 5 5 5 5 5 5 5 5 4 4 4 4 4 4 4 4 4 4 4 4 4 4
5 4 5 4 3 4 4 4 5 5 5 4 5 5 5 5 5 5 5 5 5 5 5 5 5 5 5 5 5 5 5 4 4 4 4 4 4 4 4 4 3 3 3 3 3 3 3 3 3
5 4 3 3 4 5 5 4 5 5 4 4 3 4 5 5 5 5 5 5 5 5 4 4 4 4 4 4 4 4 4 4 4 4 4 4 3 3 3 3 3 3 3 3 3 3 3 3 3
4 4 3 3 3 4 4 5 5 5 4 4 3 4 4 5 5 4 4 4 4 4 4 4 4 4 4 4 4 4 4 4 4 4 3 3 3 3 3 3 2 2 2 2 2 2 2 2 2
3 3 3 3 3 2 3 4 5 4 4 4 4 4 4 4 4 4 4 4 3 3 3 3 3 3 3 3 3 3 3 3 3 3 3 3 2 2 2 2 2 2 2 2 2 2 2 2 2
Wind_Speed
11 9 2 4 5 4 1 4 2 1 1 0 2 7 8 5 4 5 2 4 6 6 6 9 8 9 10 10 10 11 11 10 10 10 11 11 11 11 11 11 11 11 11 11 11 12 11 11 11
7 3 5 5 5 2 3 4 2 2 2 2 4 5 6 4 3 6 2 4 8 8 8 8 9 9 10 10 10 11 10 10 10 10 10 10 10 10 10 10 10 10 10 10 10 11 11 11 10
5 2 4 4 4 6 4 3 4 2 1 1 4 5 4 3 3 3 3 7 8 8 8 8 9 9 10 10 10 10 10 10 9 9 9 9 9 9 9 9 9 9 9 9 9 9 10 10 10
3 4 5 4 3 4 5 3 2 1 2 4 4 5 3 2 2 3 6 9 9 7 8 8 9 9 9 9 8 8 9 9 9 9 9 8 8 8 8 8 9 9 8 8 8 8 8 8 9
4 4 3 1 3 3 3 3 2 1 1 2 4 4 2 3 4 7 8 9 9 6 7 8 9 9 8 8 8 8 7 8 8 8 8 8 7 8 8 8 8 8 8 7 7 7 7 7 8
4 4 3 3 4 3 3 2 2 2 1 1 4 4 1 1 5 6 8 8 8 7 7 8 8 8 8 8 7 7 7 6 7 7 7 7 7 8 7 7 7 7 7 7 7 7 6 7 7
4 4 4 4 3 3 3 1 2 3 2 1 4 5 2 1 3 6 7 7 7 7 7 7 7 7 7 7 7 7 7 6 6 6 6 7 7 8 8 7 7 7 7 7 7 7 6 6 7
4 4 2 2 3 3 2 1 1 3 2 0 3 6 5 4 4 7 7 7 6 5 5 5 6 6 6 6 7 7 7 6 6 5 6 6 7 7 7 7 7 7 7 8 7 6 6 5 6
4 3 3 4 4 3 1 1 1 1 3 2 2 3 5 7 6 8 6 5 5 4 3 4 4 5 5 5 5 6 6 5 5 5 6 6 6 6 6 7 7 7 8 7 7 6 6 5 5
4 4 6 4 3 3 0 0 1 2 2 1 3 3 5 7 7 7 6 5 5 4 3 3 3 3 4 4 5 5 5 5 5 5 5 5 5 5 5 6 7 7 7 6 6 6 5 5 5
4 6 4 2 1 1 1 1 1 3 3 5 5 5 6 6 6 7 6 5 5 4 4 3 3 4 4 4 4 4 4 4 4 5 5 5 5 5 5 5 5 6 6 5 5 5 4 4 4
3 3 3 2 1 0 1 1 1 3 6 5 6 8 8 7 7 7 7 5 4 4 3 3 4 4 4 4 4 3 3 3 3 3 4 5 4 4 4 3 3 4 4 4 4 3 3 3 3
3 3 2 2 1 1 1 2 2 4 4 2 4 6 8 8 6 5 6 5 4 4 4 3 3 4 4 4 3 3 3 3 3 3 3 4 4 3 2 2 3 3 3 3 3 3 3 2 2
3 2 2 3 3 2 3 4 2 6 3 4 5 6 7 7 6 5 5 5 5 5 4 3 3 4 5 4 3 3 3 3 3 3 2 3 3 3 3 2 2 2 3 3 3 2 2 1 1
1 1 4 4 4 3 2 5 6 6 4 4 5 6 6 6 6 7 7 6 6 6 5 4 4 4 4 4 3 3 3 4 3 2 2 3 3 4 3 3 2 1 2 3 3 2 2 1 1
1 0 4 5 4 3 4 8 6 5 6 6 6 5 5 5 6 6 6 5 5 5 5 4 4 4 4 4 3 3 3 3 3 2 2 2 3 4 3 3 2 2 3 3 2 1 1 1 1
0 3 5 5 3 3 5 8 6 4 6 7 7 7 6 5 4 4 4 5 5 5 5 4 3 4 4 4 3 3 3 2 2 2 2 2 2 3 3 2 2 3 3 2 2 1 1 1 0
5 5 5 6 3 3 6 10 7 5 6 8 8 7 7 6 6 5 4 4 5 4 4 4 3 3 3 3 2 2 2 1 1 1 2 2 2 3 3 2 2 3 3 2 1 1 1 1 1
4 5 7 7 4 4 9 11 10 8 6 7 7 7 7 7 5 4 5 4 4 4 3 4 3 3 3 3 3 2 2 1 1 1 1 2 2 2 3 2 2 3 3 3 3 2 1 1 1
5 6 7 6 3 4 7 11 10 9 8 9 9 9 8 6 4 4 4 4 5 5 4 3 3 3 3 4 3 2 2 2 2 1 0 1 2 2 3 3 3 3 3 3 3 2 2 0 1
7 7 6 5 4 3 3 8 7 6 5 6 6 7 7 7 7 6 5 5 5 5 5 5 4 4 3 3 2 2 1 0 0 1 1 1 2 3 3 3 3 3 3 3 3 4 3 2 1
8 6 6 4 2 4 2 6 8 6 5 6 6 6 6 6 6 5 5 5 5 6 5 5 4 4 3 3 4 4 3 3 3 2 2 1 2 2 2 3 3 3 3 4 4 3 3 3 2
6 2 3 3 3 4 3 5 8 4 6 8 8 7 6 6 6 6 6 6 5 4 5 4 4 4 4 4 5 5 4 3 2 1 1 1 1 1 2 2 3 3 2 3 4 3 3 3 3
2 2 3 2 1 5 7 7 7 6 9 8 7 7 6 5 5 4 3 3 2 2 3 3 3 3 3 4 4 5 5 4 3 3 2 2 1 1 1 1 2 2 2 3 3 4 4 3 3
3 3 1 2 2 7 4 6 9 7 6 7 8 7 6 5 5 4 3 3 2 3 3 3 4 3 3 4 4 4 5 5 5 4 4 3 2 1 2 2 1 1 2 2 2 3 4 4 4
5 6 6 5 5 5 3 7 7 5 3 2 3 5 4 4 5 5 5 5 4 3 3 3 3 3 3 4 4 4 4 4 4 4 4 4 3 3 3 2 2 2 2 2 2 2 3 3 4
4 5 4 2 1 3 6 6 7 2 1 0 1 2 4 5 5 5 4 4 3 3 3 3 3 3 3 3 4 4 4 4 4 4 3 3 2 2 3 3 2 2 2 2 2 2 2 2 3
3 5 3 3 3 5 6 5 5 6 6 4 3 4 4 4 4 4 4 3 2 2 1 1 2 3 3 3 3 2 3 3 4 3 3 3 2 2 2 2 2 2 2 2 2 2 2 3 3
3 3 4 4 4 4 5 7 5 7 7 7 7 6 5 5 5 4 3 2 2 1 1 1 1 1 1 2 2 2 2 2 3 3 3 2 2 2 2 2 2 3 3 2 3 3 2 3 3
5 6 6 5 5 5 4 8 4 4 5 6 6 5 4 4 4 3 3 2 2 1 1 1 0 1 1 2 2 2 2 2 2 2 2 2 2 2 2 2 2 3 2 3 3 3 3 3 3
Wind_Direction
335 337 49 56 58 55 241 263 247 316 39 5 77 96 103 99 115 143 166 131 123 127 125 123 116 117 119 116 111 113 113 110 106 103 101 100 98 96 94 92 90 89 90 91 90 88 89 91 92
334 355 54 63 95 134 260 259 239 248 194 151 71 79 79 76 84 111 124 134 122 120 120 120 113 113 118 117 113 110 112 113 111 107 106 105 103 101 98 96 93 91 91 93 93 92 89 89 93
332 46 80 81 131 180 208 234 214 239 296 93 67 52 86 107 116 137 158 135 115 110 114 119 118 115 112 115 116 112 110 112 112 110 110 109 106 105 104 104 99 95 93 94 94 93 91 89 89
40 47 59 87 194 217 202 229 208 169 18 40 97 66 53 32 146 148 133 121 114 108 110 115 118 116 109 109 111 112 112 113 114 113 112 111 108 107 108 107 106 103 99 98 99 94 92 91 87
58 77 77 122 231 243 234 233 210 160 129 42 94 99 52 352 99 119 125 121 121 114 106 113 114 114 109 107 108 108 110 112 112 114 112 112 110 110 109 107 107 109 107 103 103 99 96 94 90
56 73 112 202 227 256 269 244 154 126 122 68 95 111 149 9 110 123 121 119 120 119 105 108 110 107 108 107 107 108 104 104 109 110 115 113 110 108 110 109 107 110 113 110 103 101 95 89 86
108 110 172 191 209 250 258 224 149 148 122 175 132 119 155 227 145 123 112 109 110 112 106 99 106 107 105 106 107 103 101 100 104 109 114 116 114 110 107 106 106 109 110 111 108 104 101 92 86
125 112 172 208 199 234 272 145 142 140 160 129 110 140 183 202 150 112 102 101 103 104 106 104 102 104 103 104 109 105 101 99 100 104 107 114 113 112 110 107 109 114 113 109 105 103 100 94 88
97 97 208 213 194 224 286 75 352 53 102 46 59 164 178 144 120 106 102 97 101 103 107 111 108 104 108 110 109 106 105 101 101 100 103 103 103 110 112 112 115 116 112 109 104 99 90 78 76
102 171 220 222 197 195 267 210 213 80 69 46 33 53 114 129 132 132 138 142 142 146 141 124 118 111 107 112 105 99 99 96 95 93 91 96 101 107 112 115 117 119 112 107 105 98 84 65 58
152 190 214 238 207 171 187 287 259 150 216 209 184 163 146 143 146 153 160 161 165 166 156 150 140 128 119 110 107 101 100 97 94 96 99 99 96 95 95 99 101 103 101 92 93 85 77 71 65
175 224 213 232 266 187 222 234 260 213 227 211 176 162 156 166 175 172 169 170 162 157 166 164 152 137 128 120 121 116 113 105 99 102 108 110 99 91 89 89 92 94 93 89 87 87 84 75 73
210 239 245 239 278 252 213 227 223 249 243 184 150 155 167 177 186 185 173 170 163 167 175 170 156 148 141 135 137 131 131 128 124 117 117 123 120 118 103 91 89 92 97 97 96 99 92 77 72
205 226 276 272 261 258 231 264 237 247 206 161 162 178 188 190 187 182 181 182 181 180 182 172 161 157 146 145 146 145 139 129 121 119 126 127 128 132 126 110 103 97 107 115 111 105 99 85 84
127 309 300 258 230 224 176 278 232 224 173 176 193 198 203 205 191 190 190 189 187 184 181 174 166 152 150 153 155 144 142 135 131 138 143 139 139 141 139 136 134 125 117 111 98 88 88 72 56
61 203 264 262 205 197 162 251 249 210 181 202 210 210 213 215 203 200 191 187 186 177 176 179 167 158 162 159 154 146 141 138 145 151 157 155 153 145 135 145 155 139 119 108 120 124 93 66 55
285 230 240 271 222 186 194 247 257 215 199 213 215 215 216 216 216 203 184 174 174 171 168 171 168 169 170 158 148 137 132 134 144 143 150 166 168 161 144 152 159 140 123 117 145 119 128 136 82
223 229 241 244 253 217 233 252 265 247 217 219 218 218 215 210 216 199 182 171 166 162 158 159 164 170 166 151 136 128 121 120 122 138 166 174 176 162 146 149 156 147 142 149 150 142 126 175 186
215 218 245 252 252 236 243 254 258 253 235 231 227 220 214 214 215 190 179 170 159 158 160 167 164 175 164 166 169 177 196 200 199 169 191 185 184 174 161 162 165 159 170 178 172 154 144 116 90
238 248 257 273 271 243 260 267 260 246 231 225 222 218 212 208 201 192 181 173 175 176 177 178 179 183 180 185 186 188 188 200 203 177 178 187 185 187 184 166 174 175 174 176 177 154 150 164 128
244 232 241 255 308 306 301 291 258 253 238 232 224 215 201 192 193 195 187 190 186 184 188 190 191 187 187 180 162 137 101 72 220 228 229 227 202 202 192 182 174 179 175 189 194 178 169 180 222
247 232 232 245 259 269 196 274 268 245 245 233 226 215 208 203 195 191 188 192 197 197 192 192 193 189 188 175 168 168 178 204 223 220 224 230 211 198 195 182 176 179 176 187 201 189 183 170 194
231 232 224 237 219 274 228 230 274 244 240 238 228 219 212 202 192 192 195 197 199 190 186 192 190 190 186 179 179 181 192 207 202 198 205 223 214 190 188 182 172 173 180 185 194 194 186 183 188
171 53 27 40 106 257 225 207 266 225 221 228 222 217 207 197 188 187 187 178 179 176 178 177 177 193 192 188 186 188 193 191 187 200 206 217 220 198 216 197 176 178 180 190 198 198 194 197 191
106 104 360 315 273 247 220 213 248 240 227 216 214 211 202 191 181 176 176 175 181 178 178 176 176 194 197 193 195 197 196 191 197 203 206 202 202 216 224 214 191 195 203 194 192 190 196 197 195
200 173 186 217 234 269 254 231 251 252 256 230 206 196 184 188 186 185 190 190 192 191 183 178 182 199 203 198 199 199 194 193 201 204 202 201 203 212 209 202 203 215 218 203 181 189 205 196 196
176 207 194 173 255 262 255 270 291 245 258 229 177 175 194 196 192 193 193 190 188 191 202 191 188 206 215 204 192 192 193 193 193 197 195 193 196 198 192 192 194 204 216 208 182 192 210 202 205
178 158 132 172 212 252 268 253 242 233 232 230 222 216 216 204 195 193 191 191 188 191 211 193 192 215 221 195 188 183 190 192 184 178 181 184 187 183 175 186 198 198 198 202 198 204 207 207 218
175 185 184 187 199 205 259 265 232 216 212 213 217 213 206 201 194 192 192 187 178 156 152 169 187 201 182 172 167 158 162 166 164 169 176 175 175 174 177 194 203 206 206 211 209 217 220 223 234
207 203 180 195 229 212 232 267 277 237 218 208 214 212 203 197 194 186 179 171 169 167 187 182 173 163 161 149 143 151 148 145 154 167 177 168 179 185 189 194 209 214 209 208 214 224 231 224 232
Height
1512 1513 1514 1516 1519 1530 1531 1524 1518 1515 1514 1514 1513 1513 1516 1520 1523 1530 1528 1527 1528 1529 1530 1530 1531 1531 1532 1532 1532 1533 1533 1534 1534 1534 1534 1535 1535 1536 1536 1536 1537 1537 1537 1537 1537 1538 1538 1538 1538
1512 1513 1515 1515 1525 1537 1532 1522 1518 1514 1514 1513 1514 1515 1516 1520 1522 1524 1525 1526 1527 1528 1529 1530 1531 1531 1531 1532 1532 1532 1533 1533 1534 1534 1534 1535 1535 1536 1536 1536 1536 1537 1537 1537 1537 1537 1538 1538 1538
1512 1513 1515 1518 1527 1532 1526 1518 1515 1513 1513 1513 1514 1516 1519 1521 1523 1524 1525 1526 1527 1528 1529 1530 1531 1531 1531 1531 1531 1532 1533 1533 1534 1534 1534 1535 1535 1535 1536 1536 1536 1536 1537 1537 1537 1537 1537 1538 1538
1513 1514 1516 1523 1525 1522 1518 1515 1514 1513 1513 1513 1514 1518 1520 1523 1523 1524 1525 1526 1527 1528 1528 1529 1530 1530 1531 1531 1531 1532 1532 1533 1533 1534 1534 1534 1535 1535 1535 1535 1536 1536 1536 1537 1537 1537 1537 1537 1538
1512 1513 1520 1526 1523 1518 1515 1513 1513 1513 1513 1514 1515 1518 1521 1523 1523 1524 1524 1525 1526 1527 1528 1529 1529 1530 1530 1530 1531 1531 1532 1532 1533 1533 1533 1534 1534 1534 1534 1535 1535 1536 1536 1536 1536 1537 1537 1537 1537
1513 1514 1525 1528 1522 1517 1514 1513 1513 1513 1514 1515 1516 1518 1521 1523 1523 1524 1524 1525 1526 1526 1527 1528 1528 1529 1529 1530 1530 1530 1531 1531 1532 1532 1532 1533 1533 1533 1534 1534 1534 1535 1535 1536 1536 1536 1536 1536 1537
1514 1518 1522 1522 1520 1517 1514 1512 1513 1513 1513 1515 1515 1518 1520 1522 1523 1523 1524 1525 1525 1526 1527 1527 1527 1528 1528 1529 1529 1530 1530 1530 1530 1531 1531 1532 1532 1533 1533 1533 1534 1534 1534 1535 1535 1535 1536 1536 1536
1512 1516 1519 1520 1518 1516 1512 1512 1512 1512 1513 1515 1515 1516 1519 1521 1522 1523 1523 1524 1525 1525 1526 1526 1526 1527 1527 1527 1528 1529 1529 1529 1529 1530 1530 1531 1531 1531 1532 1532 1532 1533 1533 1534 1534 1534 1535 1535 1536
1512 1520 1522 1517 1516 1514 1512 1512 1512 1513 1513 1514 1514 1515 1516 1519 1520 1521 1522 1523 1523 1524 1524 1525 1525 1526 1526 1526 1527 1527 1528 1528 1528 1528 1529 1529 1530 1530 1530 1531 1531 1532 1532 1533 1533 1533 1534 1534 1535
1511 1520 1516 1512 1511 1511 1511 1511 1512 1512 1512 1513 1513 1514 1516 1517 1518 1519 1519 1520 1521 1522 1523 1523 1524 1524 1525 1525 1525 1526 1526 1527 1527 1527 1527 1528 1528 1529 1529 1530 1530 1531 1531 1532 1532 1532 1533 1533 1534
1510 1514 1511 1510 1510 1510 1510 1511 1511 1511 1512 1511 1511 1512 1514 1515 1516 1517 1518 1518 1519 1520 1521 1522 1522 1523 1523 1523 1524 1524 1524 1525 1525 1525 1526 1526 1527 1527 1528 1528 1528 1529 1530 1530 1530 1531 1531 1532 1532
1510 1509 1509 1509 1509 1509 1509 1509 1510 1509 1509 1509 1510 1510 1512 1513 1514 1515 1515 1516 1517 1518 1519 1519 1520 1521 1521 1522 1522 1522 1522 1523 1523 1523 1524 1524 1525 1525 1526 1526 1526 1527 1528 1529 1529 1529 1530 1530 1531
1509 1509 1508 1508 1508 1508 1508 1508 1508 1507 1507 1508 1508 1509 1510 1511 1512 1513 1514 1515 1515 1516 1516 1517 1518 1518 1519 1520 1520 1520 1520 1521 1521 1522 1522 1523 1523 1523 1524 1524 1524 1525 1526 1527 1527 1528 1528 1529 1529
1508 1508 1508 1507 1507 1507 1507 1506 1507 1505 1506 1506 1506 1506 1507 1508 1509 1510 1511 1511 1512 1513 1514 1514 1515 1516 1517 1517 1518 1518 1518 1519 1519 1520 1520 1521 1521 1521 1522 1522 1523 1523 1524 1525 1525 1526 1526 1527 1527
1507 1509 1508 1506 1505 1505 1506 1507 1504 1502 1504 1504 1504 1504 1505 1506 1506 1507 1507 1508 1509 1510 1511 1512 1513 1513 1514 1515 1515 1516 1516 1517 1517 1518 1518 1518 1519 1519 1519 1520 1521 1522 1522 1523 1523 1524 1525 1525 1525
1508 1511 1512 1505 1504 1504 1509 1507 1500 1500 1501 1501 1501 1502 1502 1503 1503 1504 1505 1505 1506 1507 1508 1509 1510 1511 1511 1512 1513 1513 1514 1514 1515 1515 1516 1516 1516 1517 1517 1518 1519 1520 1520 1521 1521 1522 1522 1523 1523
1511 1514 1511 1506 1502 1503 1505 1503 1498 1498 1498 1498 1498 1499 1499 1499 1500 1501 1501 1502 1503 1504 1505 1505 1507 1508 1509 1509 1510 1511 1511 1512 1512 1513 1513 1513 1514 1514 1515 1515 1516 1517 1518 1519 1519 1520 1520 1520 1521
1512 1512 1509 1507 1502 1502 1503 1500 1496 1495 1496 1495 1495 1495 1495 1496 1496 1497 1498 1499 1500 1501 1502 1503 1503 1505 1506 1507 1507 1508 1508 1509 1509 1510 1510 1511 1511 1511 1512 1513 1514 1515 1515 1516 1517 1517 1518 1518 1518
1505 1507 1507 1504 1500 1502 1500 1497 1494 1492 1492 1492 1491 1491 1491 1492 1494 1495 1495 1496 1497 1498 1499 1499 1500 1501 1502 1503 1503 1504 1504 1505 1506 1507 1507 1508 1508 1508 1509 1510 1511 1512 1512 1513 1513 1514 1515 1515 1516
1504 1506 1505 1502 1500 1500 1499 1495 1490 1488 1487 1487 1487 1487 1487 1489 1490 1491 1492 1493 1493 1494 1495 1496 1497 1498 1499 1500 1500 1501 1502 1502 1503 1503 1504 1505 1505 1506 1506 1507 1508 1508 1509 1509 1510 1511 1511 1512 1513
1503 1505 1503 1502 1500 1499 1500 1495 1488 1483 1483 1483 1483 1483 1483 1484 1485 1486 1487 1489 1489 1490 1491 1492 1493 1494 1495 1496 1497 1498 1499 1499 1500 1500 1501 1501 1502 1502 1503 1504 1504 1505 1505 1506 1507 1507 1508 1509 1510
1502 1499 1500 1500 1504 1506 1503 1503 1487 1482 1481 1480 1480 1479 1480 1481 1482 1483 1484 1485 1486 1487 1488 1489 1490 1491 1492 1493 1493 1494 1494 1495 1496 1497 1497 1498 1499 1499 1500 1500 1501 1501 1502 1502 1503 1504 1505 1506 1506
1497 1496 1498 1499 1503 1507 1503 1505 1489 1482 1480 1477 1476 1476 1476 1477 1478 1479 1480 1481 1482 1483 1484 1486 1487 1487 1488 1489 1490 1491 1491 1492 1493 1494 1494 1495 1495 1496 1497 1497 1497 1498 1498 1498 1499 1500 1501 1502 1503
1495 1498 1501 1505 1507 1508 1499 1501 1488 1481 1474 1471 1471 1472 1472 1474 1475 1476 1478 1478 1479 1480 1481 1482 1483 1483 1484 1485 1486 1487 1488 1488 1489 1490 1491 1492 1492 1493 1493 1494 1494 1494 1494 1495 1495 1496 1497 1498 1499
1496 1503 1510 1510 1513 1503 1494 1495 1482 1471 1467 1466 1467 1468 1469 1470 1472 1473 1474 1475 1476 1476 1477 1478 1479 1480 1481 1481 1482 1483 1484 1485 1486 1486 1487 1488 1488 1489 1490 1490 1491 1491 1491 1491 1492 1492 1493 1494 1495
1496 1499 1506 1507 1507 1499 1494 1490 1475 1467 1465 1464 1465 1465 1466 1468 1469 1470 1471 1472 1473 1474 1474 1475 1475 1476 1477 1478 1478 1479 1480 1481 1482 1483 1484 1485 1485 1486 1487 1487 1487 1488 1488 1488 1489 1489 1490 1490 1491
1494 1498 1497 1503 1505 1503 1492 1484 1472 1465 1465 1464 1464 1464 1464 1465 1467 1468 1469 1470 1471 1471 1472 1472 1472 1473 1473 1474 1475 1476 1477 1478 1479 1480 1480 1481 1482 1483 1483 1484 1484 1484 1485 1485 1485 1485 1486 1486 1487
1491 1493 1501 1502 1500 1495 1487 1484 1474 1466 1464 1463 1463 1462 1462 1464 1465 1466 1467 1468 1469 1469 1470 1470 1470 1470 1470 1471 1472 1472 1473 1474 1475 1476 1477 1478 1478 1479 1480 1480 1481 1481 1482 1482 1482 1482 1482 1483 1483
1492 1494 1495 1498 1498 1495 1492 1478 1462 1460 1459 1460 1460 1460 1461 1462 1463 1464 1465 1466 1467 1467 1467 1467 1467 1467 1467 1468 1469 1469 1470 1471 1472 1472 1473 1474 1475 1476 1476 1477 1477 1478 1478 1479 1479 1479 1479 1479 1479
1487 1488 1492 1494 1494 1494 1490 1476 1458 1457 1456 1457 1458 1459 1460 1461 1462 1463 1464 1465 1465 1465 1465 1465 1464 1465 1465 1466 1466 1467 1467 1468 1468 1469 1470 1471 1472 1473 1473 1474 1474 1474 1475 1475 1475 1475 1476 1476 1475